Location: Newark
(36.0797°N, 3.9744°E)
Time: 20:41:43
(UTC+00:00)

Vanguard 2 - Pass Details

Date: 09 December 2019
Orbit: 553 x 2938 km, 32.9° (Epoch: 28 January)

Event Time Altitude Azimuth Distance (km) Brightness Sun altitude
Exits shadow 05:37:54 13° 275° (W) 5,525 11.2 -12.9°
Maximum altitude 05:54:29 70° 197° (SSW) 2,701 10.3 -9.7°
Drops below altitude 10° 06:07:17 10° 117° (ESE) 4,336 13.1 -7.3°
Sets 06:10:10 0° 115° (ESE) 5,058 14.5 -6.8°
